Location: Brede
(50.9167°N, 0.6000°E)
Time: 21:31:12
(UTC+00:00)

Altair - Pass Details

Date: 29 July 2021
Orbit: 1501 x 1682 km, 47.2° (Epoch: 22 September)

Event Time Altitude Azimuth Distance (km) Brightness Sun altitude
Exits shadow 01:14:43 20° 166° (SSE) 3,019 8.5 -18.6°
Maximum altitude 01:18:24 25° 135° (SE) 2,699 8.5 -18.5°
Drops below altitude 10° 01:25:22 10° 85° (E) 3,665 9.8 -18.1°
Sets 01:29:02 0° 73° (ENE) 4,641 10.6 -17.9°
